Printer-friendly version

IAU Minor Planet Center

Minor Planet Center

MPEC 2000-H05: 2000 GS146

The following Minor Planet Electronic Circular may be linked-to from your own Web pages, but must not otherwise be redistributed electronically.


Read MPEC 2000-H04 Read MPEC 2000-H06


M.P.E.C. 2000-H05                                Issued 2000 Apr. 16, 19:45 UT

     The Minor Planet Electronic Circulars contain information on unusual
         minor planets and routine data on comets.  They are published
   on behalf of Commission 20 of the International Astronomical Union by the
          Minor Planet Center, Smithsonian Astrophysical Observatory,
                          Cambridge, MA 02138, U.S.A.

             Prepared using the Tamkin Foundation Computer Network

             BMARSDEN@CFA.HARVARD.EDU or GWILLIAMS@CFA.HARVARD.EDU
          URL http://cfa-www.harvard.edu/iau/mpc.html  ISSN 1523-6714

                                  2000 GS146

Observations:
     K00GE6S* C2000 04 06.43661 16 45 50.49 -18 21 51.3          18.4        704
     K00GE6S  C2000 04 06.45114 16 45 47.85 -18 23 00.1          19.1        704
     K00GE6S  C2000 04 06.46606 16 45 45.11 -18 24 14.5          19.1        704
     K00GE6S  C2000 04 06.48047 16 45 42.53 -18 25 23.6          19.1        704
     K00GE6S FC2000 04 07.31014 16 43 14.10 -19 33 00.1          19.4 V      860
     K00GE6S FC2000 04 07.31177 16 43 13.82 -19 33 08.5          18.8 V      860
     K00GE6S FC2000 04 07.31338 16 43 13.40 -19 33 19.7                      860
     K00GE6S  C2000 04 07.40402 16 42 57.29 -19 41 05.3          18.3        704
     K00GE6S  C2000 04 07.41790 16 42 54.63 -19 42 15.1          18.8        704
     K00GE6S  C2000 04 07.43176 16 42 52.03 -19 43 24.1          18.4        704
     K00GE6S  C2000 04 07.44562 16 42 49.23 -19 44 32.0          19.4        704
     K00GE6S  C2000 04 07.45949 16 42 46.59 -19 45 41.5          19.3        704
     K00GE6S  C2000 04 08.14029 16 40 37.02 -20 42 42.3                      621
     K00GE6S  C2000 04 08.14086 16 40 36.91 -20 42 45.1                      621
     K00GE6S  C2000 04 08.14142 16 40 36.78 -20 42 48.0          18.8 R      621
     K00GE6S  C2000 04 08.15041 16 40 34.99 -20 43 33.3                      621
     K00GE6S  C2000 04 08.15097 16 40 34.88 -20 43 35.8                      621
     K00GE6S  C2000 04 08.15154 16 40 34.74 -20 43 39.0                      621
     K00GE6S  C2000 04 09.12242 16 37 19.21 -22 06 21.5          17.8 R      046
     K00GE6S  C2000 04 09.12380 16 37 18.93 -22 06 29.3                      046
     K00GE6S  C2000 04 09.12459 16 37 18.74 -22 06 33.5                      046
     K00GE6S  C2000 04 09.12557 16 37 18.47 -22 06 37.6                      046
     K00GE6S  C2000 04 09.12638 16 37 18.31 -22 06 42.5                      046
     K00GE6S 2C2000 04 09.58368 16 35 41.73 -22 46 09.4          17.2 R      568
     K00GE6S 2C2000 04 09.58755 16 35 40.85 -22 46 29.4          17.4 R      568
     K00GE6S  C2000 04 13.36540 16 20 22.87 -28 24 23.1          18.0        704
     K00GE6S  C2000 04 13.37045 16 20 21.65 -28 24 51.3          17.9        704
     K00GE6S  C2000 04 13.37905 16 20 19.15 -28 25 37.6          17.6        704
     K00GE6S  C2000 04 13.38460 16 20 17.54 -28 26 07.9          17.4        704
     K00GE6S  C2000 04 13.39329 16 20 15.14 -28 26 56.0          17.4        704
     K00GE6S  C2000 04 13.39830 16 20 13.85 -28 27 23.1          18.1        704
     K00GE6S  C2000 04 13.40691 16 20 11.29 -28 28 11.0          17.5        704
     K00GE6S  C2000 04 14.21705 16 16 24.10 -29 42 08.2          19.4 V      860
     K00GE6S  C2000 04 14.21831 16 16 23.62 -29 42 16.3          19.1 V      860
     K00GE6S  C2000 04 14.21957 16 16 23.21 -29 42 23.8          19.3 V      860
     K00GE6S  C2000 04 14.22083 16 16 22.90 -29 42 28.5          19.7 V      860
     K00GE6S  C2000 04 14.27450 16 16 06.73 -29 47 25.6          18.9 V      860
     K00GE6S  C2000 04 14.35022 16 15 45.82 -29 54 39.4          17.5        704
     K00GE6S  C2000 04 14.36352 16 15 41.80 -29 55 52.4          17.7        704
     K00GE6S  C2000 04 14.37673 16 15 37.81 -29 57 06.5          17.9        704
     K00GE6S  C2000 04 14.38995 16 15 33.91 -29 58 20.2          17.5        704
     K00GE6S  C2000 04 14.40316 16 15 29.92 -29 59 32.2          17.6        704
     K00GE6S 4C2000 04 15.41259 16 10 27.37 -31 32 20.7                      673
     K00GE6S 4C2000 04 15.41764 16 10 25.83 -31 32 48.7                      673
     K00GE6S 4C2000 04 15.42322 16 10 24.06 -31 33 20.6                      673

Observer details:
046 Klet.  Observers J. Ticha, M. Tichy, Z. Moravec.  0.57-m f/5.2 reflector
    + CCD.
568 Mauna Kea.  Observer D. J. Tholen.  2.24-m University of Hawaii reflector
    + CCD.
621 Bergisch Gladbach.  Observer W. Bickel.  0.60-m f/5.2 reflector + CCD.
673 Table Mountain Observatory, Wrightwood.  Observers M. Hicks, D. Deaver.
    0.6-m reflector + CCD.
704 Lincoln Laboratory ETS, New Mexico.  Observers M. Blythe, F. Shelly,
    M. Bezpalko, M. Elowitz, R. Huber.  Measurers J. Stuart, H. Viggh,
    R. Sayer, J. B. Evans.  1.0-m f/2.15 reflector + CCD.
860 Valinhos.  Observer P. R. Holvorcem.  0.36-m f/3.6 Schmidt-Cassegrain
    + CCD.

Orbital elements:
2000 GS146
Epoch 2000 Apr. 6.0 TT = JDT 2451640.5                  Williams
M  75.63644              (2000.0)            P               Q
n   0.66774176     Peri.   79.56563     -0.22465315     -0.88779222
a   1.2963741      Node    33.65144     +0.32590793     -0.45694429
e   0.1975017      Incl.   46.45992     +0.91832183     -0.05501726
P   1.48           H   18.4           G   0.15
From 45 observations 2000 Apr. 6-15.

Ephemeris:
2000 GS146               a,e,i = 1.30, 0.20, 46                  q = 1.0403
Date    TT    R. A. (2000) Decl.     Delta      r     Elong.  Phase     V
2000 04 16    16 07.38   -32 26.0    0.378    1.312   139.0    30.1    18.2
2000 04 21    15 36.79   -39 53.9    0.374    1.327   144.3    26.2    18.1
2000 04 26    14 58.35   -46 22.2    0.384    1.341   145.9    24.8    18.1
2000 05 01    14 14.08   -51 08.0    0.405    1.355   143.7    26.1    18.3
2000 05 06    13 28.74   -53 58.2    0.436    1.369   139.2    28.8    18.5
2000 05 11    12 47.72   -55 10.9    0.476    1.383   133.7    31.9    18.8
2000 05 16    12 14.27   -55 19.5    0.522    1.395   128.2    34.7    19.1
2000 05 21    11 48.89   -54 53.9    0.572    1.408   123.0    37.0    19.4
2000 05 26    11 30.57   -54 14.7    0.624    1.420   118.3    38.9    19.7
2000 05 31    11 17.92   -53 33.7    0.679    1.432   114.1    40.3    19.9
2000 06 05    11 09.69   -52 57.1    0.734    1.443   110.2    41.3    20.1

2000 06 15    11 02.65   -52 07.9    0.843    1.464   103.5    42.4    20.5
2000 06 25    11 04.07   -51 53.0    0.950    1.483    97.9    42.8    20.8
2000 07 05    11 11.24   -52 09.7    1.051    1.500    93.0    42.6    21.0
2000 07 15    11 22.72   -52 54.4    1.144    1.514    88.8    42.1    21.2
2000 07 25    11 37.84   -54 02.6    1.229    1.527    85.1    41.5    21.4
2000 08 04    11 56.49   -55 30.5    1.305    1.536    81.9    40.8    21.5
2000 08 14    12 18.87   -57 14.5    1.372    1.544    79.1    40.1    21.6
2000 08 24    12 45.51   -59 09.3    1.430    1.549    76.7    39.4    21.7
2000 09 03    13 17.35   -61 08.9    1.479    1.552    74.5    38.8    21.8
2000 09 13    13 55.47   -63 04.7    1.521    1.552    72.6    38.2    21.8
2000 09 23    14 40.96   -64 43.8    1.557    1.550    70.8    37.7    21.8
2000 10 03    15 34.24   -65 50.1    1.587    1.546    69.2    37.2    21.9
2000 10 13    16 33.80   -66 05.3    1.613    1.539    67.5    36.8    21.9
2000 10 23    17 35.76   -65 14.1    1.637    1.529    65.9    36.4    21.9
2000 11 02    18 35.24   -63 11.0    1.661    1.518    64.1    36.0    21.9
2000 11 12    19 28.61   -60 01.3    1.685    1.504    62.2    35.6    21.9
2000 11 22    20 14.69   -55 57.0    1.711    1.488    60.0    35.1    21.9

Gareth V. Williams           (C) Copyright 2000 MPC           M.P.E.C. 2000-H05

Read MPEC 2000-H04 Read MPEC 2000-H06


Our Web policy. Index to the CBAT/MPC/ICQ pages.


Valid HTML 4.01!